Weather History for Muskegon, MI

Change the Weather History Date:

Monday, December 31, 2012

  Actual Average Record
Temperature  
Mean Temperature 33 °F 27 °F  
Max Temperature 39 °F 32 °F 58 °F (2010)
Min Temperature 26 °F 22 °F -15 °F (1976)
Degree Days  
Heating Degree Days 32 38  
Month to date heating degree days 899 1080  
Since 1 July heating degree days 2199 2446  
Cooling Degree Days 0 0  
Month to date cooling degree days 0 0  
Year to date cooling degree days 925 566  
Moisture  
Dew Point 24 °F    
Average Humidity 71    
Maximum Humidity 78    
Minimum Humidity 63    
Precipitation  
Precipitation 0.00 in 0.07 in 0.73 in (1981)
Month to date precipitation 3.04 2.55  
Year to date precipitation 31.59 33.49  
Snow  
Snow 0.00 in 1.00 in 6.00 in (1981)
Month to date snowfall 7.4 28.9  
Since 1 July snowfall 8.2 35.1  
Snow Depth 2.00 in    
Sea Level Pressure  
Sea Level Pressure 30.01 in    
Wind  
Wind Speed 15 mph (WNW)    
Max Wind Speed 28 mph    
Max Gust Speed 36 mph    
Visibility 9 miles    
Events      
T = Trace of Precipitation, MM = Missing Value Source: NWS Daily Summary

Daily Weather History Graph

Daily Weather History Graph

Search for Another Location

Airport:

Trip Planner

Search our weather history database for the weather conditions in past years. The results will help you decide how hot, cold, wet, or windy it might be!

Date:

Astronomy

Dec. 31, 2012 Rise Set
Actual Time 8:16 AM EST 5:19 PM EST
Civil Twilight 7:44 AM EST 5:52 PM EST
Nautical Twilight 7:08 AM EST 6:28 PM EST
Astronomical Twilight 6:34 AM EST 7:02 PM EST
Moon 8:55 PM EST (12/31) 9:52 AM EST (12/31)
Length of Visible Light 10h 07m
Length of Day
9h 03m
Waning Gibbous, 90% of the Moon is Illuminated
Dec 31
Waning Gibbous
Jan 4
Last Quarter
Jan 11
New
Jan 18
First Quarter
Jan 26
Full

Hourly Weather History & Observations

Time (EST) Temp. Windchill Dew Point Humidity Pressure Visibility Wind Dir Wind Speed Gust Speed Precip Events Conditions
12:53 AM 37.4 °F 26.6 °F 30.2 °F 75% 30.04 in 10.0 mi SW 21.9 mph 29.9 mph N/A   Scattered Clouds
12:55 AM 37.9 °F 26.6 °F 30.0 °F 73% 30.06 in 10.0 mi SW 25.3 mph 32.2 mph N/A   Scattered Clouds
1:55 AM 37.9 °F 27.9 °F 28.9 °F 70% 30.03 in 10.0 mi SSW 19.6 mph 29.9 mph N/A   Clear
2:55 AM 37.9 °F 26.6 °F 28.0 °F 68% 30.00 in 10.0 mi SW 25.3 mph 32.2 mph N/A   Clear
3:55 AM 37.9 °F 27.6 °F 28.0 °F 68% 29.99 in 10.0 mi SW 20.7 mph 33.4 mph N/A   Clear
4:55 AM 37.9 °F 27.6 °F 27.0 °F 65% 29.96 in 10.0 mi WSW 20.7 mph 32.2 mph N/A   Clear
5:55 AM 37.9 °F 27.1 °F 27.0 °F 65% 29.97 in 10.0 mi WSW 23.0 mph 35.7 mph N/A   Partly Cloudy
6:55 AM 37.9 °F 27.1 °F 26.1 °F 62% 29.96 in 10.0 mi WSW 23.0 mph 32.2 mph N/A   Mostly Cloudy
7:50 AM 37.4 °F 27.5 °F 26.6 °F 65% 29.94 in 10.0 mi West 18.4 mph - N/A   Mostly Cloudy
7:55 AM 37.0 °F 27.4 °F 26.1 °F 65% 29.96 in 10.0 mi WSW 17.3 mph 26.5 mph N/A   Mostly Cloudy
8:55 AM 37.0 °F 29.3 °F 27.0 °F 67% 29.96 in 10.0 mi West 11.5 mph - N/A   Overcast
9:55 AM 36.0 °F 26.7 °F 26.1 °F 67% 29.97 in 10.0 mi West 15.0 mph 21.9 mph N/A   Overcast
10:55 AM 35.1 °F 25.5 °F 26.1 °F 70% 29.99 in 10.0 mi West 15.0 mph 23.0 mph N/A   Overcast
11:55 AM 34.0 °F 24.6 °F 25.0 °F 70% 29.99 in 10.0 mi West 13.8 mph - N/A   Overcast
12:55 PM 32.0 °F 22.1 °F 24.1 °F 73% 29.96 in 7.0 mi WNW 13.8 mph - N/A   Overcast
1:26 PM 30.2 °F 19.8 °F 24.8 °F 80% 29.94 in 6.0 mi NW 13.8 mph 18.4 mph N/A   Haze
1:55 PM 30.0 °F 20.0 °F 24.1 °F 79% 29.97 in 5.0 mi NW 12.7 mph 18.4 mph N/A   Haze
2:55 PM 30.0 °F 19.5 °F 24.1 °F 79% 29.98 in 6.0 mi WNW 13.8 mph 18.4 mph N/A   Haze
3:55 PM 30.0 °F 20.0 °F 21.9 °F 72% 30.00 in 7.0 mi NW 12.7 mph - N/A   Overcast
4:55 PM 30.0 °F 21.7 °F 21.0 °F 69% 30.01 in 8.0 mi WNW 9.2 mph 17.3 mph N/A   Overcast
5:55 PM 28.9 °F 20.4 °F 19.9 °F 69% 30.03 in 10.0 mi WNW 9.2 mph 17.3 mph N/A   Overcast
6:55 PM 28.9 °F 19.8 °F 19.0 °F 67% 30.05 in 10.0 mi WNW 10.4 mph - N/A   Overcast
7:55 PM 27.0 °F 15.2 °F 18.0 °F 69% 30.06 in 10.0 mi NW 15.0 mph 20.7 mph N/A   Overcast
8:55 PM 27.0 °F 18.7 °F 16.0 °F 63% 30.07 in 10.0 mi North 8.1 mph - N/A   Overcast
9:43 PM 26.6 °F 18.2 °F 17.6 °F 69% 30.05 in 10.0 mi North 8.1 mph - N/A   Overcast
9:55 PM 26.6 °F 18.2 °F 15.8 °F 64% 30.05 in 10.0 mi North 8.1 mph - N/A   Overcast
10:55 PM 27.0 °F 19.5 °F 15.1 °F 61% 30.08 in 10.0 mi North 6.9 mph - N/A   Overcast
11:55 PM 26.1 °F 20.5 °F 16.0 °F 66% 30.09 in 10.0 mi NNE 4.6 mph - N/A   Overcast